Location: *
(46.1333°S, 161.2167°W)
Time: 03:17:21
(UTC+00:00)

Cosmos 1980 Rocket - Pass Details

Date: 15 July 2020
Orbit: 828 x 851 km, 71.0° (Epoch: 10 August)

Event Time Altitude Azimuth Distance (km) Brightness Sun altitude
Exits shadow 17:14:26 - 284° (WNW) 2,520 4.2 -11.3°
Reaches altitude 10° 17:14:38 10° 282° (WNW) 2,460 4.1 -11.3°
Maximum altitude 17:19:13 25° 228° (SW) 1,648 3.2 -10.6°
Drops below altitude 10° 17:23:50 10° 173° (S) 2,471 4.5 -9.8°
Sets 17:26:45 0° 159° (SSE) 3,410 5.4 -9.3°
